Home > Time Zones > World Clock > Weather > U.S.A. > Bend > Past weeks

Flag for U.S.A. Weather past 2 weeks in Bend, Oregon, U.S.A.

Now
63 °F

Overcast.


Feels Like: 63 °F
Forecast: 47 / 68 °F
Wind: 9 mph from West

Location: Roberts Field Airport

Current Time: Jul 23, 2014 at 10:29:24 AM

Latest Report: Jul 23, 2014 at 9:56 AM


Visibility: 10 mi

Pressure: 29.99 "Hg

Humidity: 68%

Dew point: 52 °F

Location of BendLocation

Historic Weather in Bend — Graph

°F

Bend temperature yesterday

Maximum temperature yesterday: 75 °F (at 4:56 PM)
Minimum temperature yesterday: 60 °F (at 10:56 PM)
Average temperature yesterday: 66 °F

Past Weeks' High & Low Weather Summary

 TemperatureHumidityPressure
High98 °F (Jul 16, 2:56 PM)93% (Jul 23, 5:56 AM)30.11 "Hg (Jul 23, 5:56 AM)
Low47 °F (Jul 18, 3:56 AM)7% (Jul 18, 11:56 AM)29.78 "Hg (Jul 10, 4:56 PM)
Average74 °F37%29.95 "Hg
* Reported Jul 8 8:56 AM — Jul 23 8:56 AM, Bend, Weather by CustomWeather, © 2014

Note: Actual official high and low records may vary slightly from our data, if they occured in-between our weather recording intervals... More about our weather records

Advertising

Bend weather history for previous 24 hours

 ConditionsComfort  
Time TempWeatherWind HumidityBarometerVisibility
8:56 AM
Jul 23
60 °FSunny.No wind75%29.99 "Hg10 mi
7:56 AM56 °FSunny.3 mph90%29.98 "Hg10 mi
6:56 AM54 °FSunny.No wind90%29.98 "Hg10 mi
5:56 AM52 °FClear.No wind93%29.98 "Hg10 mi
4:56 AM53 °FPassing clouds.3 mph89%29.98 "Hg10 mi
3:56 AM51 °FPassing clouds.5 mph92%29.99 "Hg10 mi
2:56 AM53 °FPassing clouds.3 mph89%30.00 "Hg10 mi
1:56 AM53 °FPassing clouds.No wind89%30.02 "Hg10 mi
12:56 AM56 °FClear.3 mph84%30.01 "Hg10 mi
10:56 PM
Jul 22
60 °FClear.6 mph78%30.00 "Hg10 mi
9:56 PM65 °FLight rain. Overcast.12 mph68%30.00 "Hg10 mi
8:56 PM67 °FScattered clouds.No wind59%30.00 "Hg10 mi
8:03 PM69 °FScattered clouds.15 mph59%30.05 "Hg10 mi
7:56 PM69 °FThundershowers. Passing clouds.17 mph61%29.98 "Hg10 mi
6:56 PM71 °FScattered clouds.3 mph59%29.97 "Hg10 mi
5:56 PM71 °FLight rain. Broken clouds.No wind66%29.96 "Hg10 mi
4:56 PM75 °FSunny.8 mph50%29.97 "Hg10 mi
Weather by CustomWeather, © 2014

See weather overviewHow to use our weather pages